Theta_e
351 350 356 361 361 360 357 356 356 356 355 354 354 354 354 355 356 354 350 348 346 345 344 344 342 341 341 343 346 347 346 346
350 350 355 361 361 360 357 357 356 356 356 355 354 354 354 355 355 353 350 348 347 347 346 345 345 345 345 345 345 347 346 346
348 352 355 360 361 361 358 357 358 358 357 356 355 354 354 354 354 353 351 348 348 348 348 347 349 349 348 348 347 347 346 346
350 351 353 354 358 361 359 358 358 358 357 357 356 356 355 353 353 353 352 350 348 350 350 349 350 350 350 349 347 346 346 348
349 350 351 353 353 354 355 358 358 358 357 357 356 355 355 354 352 352 353 352 349 349 349 350 351 352 351 349 347 346 345 344
345 347 349 350 352 352 351 353 357 356 355 355 354 355 354 349 347 349 349 351 351 351 351 352 353 353 351 348 345 342 339 331
340 342 345 347 348 348 351 348 349 348 349 350 350 348 349 345 344 346 348 350 350 351 354 355 355 353 350 343 336 333 328 326
338 341 344 344 345 345 345 344 345 347 345 347 348 346 345 345 343 344 343 343 345 348 348 349 349 346 341 337 332 327 326 326
334 338 341 343 343 343 343 342 344 346 345 346 346 345 343 341 340 339 339 339 339 341 342 344 343 338 335 329 327 326 326 323
332 335 339 342 342 342 341 340 342 344 343 344 344 345 344 340 339 338 337 337 338 340 341 340 339 335 327 327 326 325 321 320
334 333 336 340 341 341 340 338 341 341 342 342 343 343 344 341 339 338 337 337 338 339 339 337 333 327 326 326 323 322 321 318
335 335 334 337 339 338 338 337 339 339 340 340 341 342 342 342 339 338 337 336 336 336 332 327 326 325 325 323 322 321 319 316
336 335 335 336 336 336 336 336 338 340 339 339 340 340 342 341 340 338 337 335 332 330 329 328 324 323 323 321 320 319 316 313
336 336 335 335 334 334 335 335 336 340 339 340 340 340 340 342 341 339 335 332 330 331 328 328 325 324 322 320 319 317 314 311
337 337 336 335 335 334 334 334 336 337 338 339 338 339 341 341 342 336 332 330 330 328 325 325 324 322 320 318 314 312 310 309
326 334 334 333 335 334 332 332 333 334 337 335 337 338 338 340 339 333 330 331 331 327 325 323 323 320 315 311 309 308 307 307
323 326 333 333 333 334 335 336 335 335 333 335 336 336 336 337 335 333 332 331 329 325 324 322 320 313 310 309 307 304 301 304
323 322 328 332 331 333 335 334 334 334 334 333 334 334 335 336 335 335 335 331 328 324 319 316 315 312 308 307 308 306 299 298
323 323 326 330 331 334 334 335 335 334 332 332 333 334 334 336 335 335 332 330 326 322 316 317 311 310 310 307 306 306 305 305
Wind_Speed
10 6 11 15 15 15 16 15 14 13 13 13 12 11 11 10 10 9 8 8 8 7 6 4 2 1 2 3 5 5 7 7
12 7 11 15 15 15 16 15 15 14 13 13 13 12 12 11 10 10 10 9 8 7 6 5 4 3 2 3 4 6 7 8
13 10 9 16 16 15 15 16 15 14 13 13 13 12 11 11 11 11 10 10 9 8 7 7 5 3 4 4 4 5 7 7
9 12 8 10 13 17 16 16 15 14 14 14 13 12 12 12 12 11 10 10 10 8 7 6 5 4 5 5 4 6 7 7
11 12 12 8 10 10 10 16 15 15 15 14 13 13 12 12 12 12 9 10 10 9 8 7 6 6 5 4 4 5 7 5
10 11 12 12 8 7 8 11 15 18 16 14 13 13 10 4 5 7 8 10 10 10 9 8 7 6 4 4 4 5 3 2
11 11 11 12 12 8 8 8 7 6 6 6 6 6 4 5 4 6 8 11 11 11 10 9 7 6 5 1 1 2 1 2
17 9 12 10 8 8 8 4 3 4 3 4 6 5 4 4 3 2 2 2 2 7 2 3 2 1 3 2 1 1 1 2
11 15 12 11 9 9 6 5 6 5 4 5 5 5 4 3 3 4 3 3 3 3 4 4 3 2 1 2 0 0 2 2
13 14 15 12 12 10 8 4 4 6 5 6 5 6 5 5 5 4 5 3 4 3 4 4 3 2 2 1 1 2 3 2
15 15 14 14 13 10 10 7 6 5 5 4 5 7 8 6 6 5 5 4 4 4 3 3 4 4 2 1 2 1 2 3
16 13 13 13 12 11 12 9 6 5 5 6 7 7 8 8 8 7 5 2 3 3 5 3 2 2 3 2 1 2 2 3
12 14 14 13 14 13 12 9 7 6 6 7 6 6 9 9 9 7 4 4 4 4 4 2 3 1 1 1 0 2 1 2
14 13 13 12 14 14 11 7 6 6 7 7 5 6 9 10 10 6 2 5 6 0 2 1 1 0 1 1 2 1 2 3
12 11 11 11 13 11 7 4 4 4 7 6 7 7 9 8 6 7 7 7 6 0 4 2 3 1 1 1 1 2 3 3
10 12 13 11 12 9 6 7 6 9 8 6 7 9 8 5 7 9 8 8 8 9 8 5 3 3 1 1 1 1 1 3
15 16 12 14 11 12 10 7 4 5 4 2 3 3 5 7 10 11 11 4 6 3 5 3 4 2 1 0 3 1 2 2
14 14 15 14 10 12 9 4 3 2 1 3 2 3 4 8 11 12 10 10 8 5 4 4 4 5 3 1 1 3 2 3
11 8 10 11 11 9 11 10 11 8 7 3 3 3 3 1 4 5 5 7 9 6 5 5 4 3 3 3 1 1 1 3
Wind_Direction
140 127 164 156 151 150 151 153 155 160 163 168 167 164 167 165 159 164 171 174 181 174 181 181 201 249 349 352 352 357 356 357
149 147 159 158 155 160 161 163 167 173 176 177 175 176 178 176 175 176 188 191 192 194 200 214 224 252 295 323 333 340 341 339
154 159 162 163 163 168 170 175 179 181 180 182 185 185 185 187 189 191 197 202 206 210 215 226 236 262 286 302 310 319 326 330
153 168 170 171 175 176 179 184 184 182 187 190 192 191 191 197 199 202 206 214 218 225 231 244 255 262 272 287 308 324 322 318
165 176 184 184 182 181 183 191 190 191 194 196 196 199 199 205 208 211 214 228 230 236 241 250 256 261 270 289 311 319 315 5
181 186 191 193 195 187 185 197 197 201 200 202 204 206 206 200 215 219 227 231 242 248 251 248 249 252 257 275 303 317 1 343
196 199 193 196 198 190 196 195 194 201 199 200 202 200 193 200 210 220 233 244 247 251 253 249 247 246 266 252 294 0 6 338
201 193 197 196 193 192 203 183 184 193 187 198 202 191 202 202 217 225 235 254 273 263 257 258 252 244 251 246 215 356 9 16
194 205 198 195 195 198 197 189 196 193 199 203 206 192 193 203 209 220 227 223 227 229 238 223 227 223 225 147 212 20 42 49
207 205 204 191 198 199 202 197 190 204 203 209 193 199 197 204 216 207 229 213 222 208 220 208 210 195 174 173 109 85 48 8
210 211 198 197 200 192 203 204 204 205 210 199 206 210 204 207 217 210 217 219 226 209 208 199 191 161 165 167 129 58 36 12
210 204 199 195 193 197 204 209 205 201 201 210 216 205 204 205 216 217 215 220 244 219 168 144 109 122 147 162 80 21 9 345
217 205 193 193 194 199 203 204 205 201 202 214 214 203 207 207 209 214 201 222 67 56 349 42 146 184 142 120 76 242 260 263
210 214 198 194 194 199 202 204 211 210 212 221 213 209 213 212 211 198 88 101 103 19 222 272 39 161 193 195 221 281 313 344
205 204 216 196 200 191 180 175 199 206 218 207 213 215 218 220 202 120 119 116 104 242 242 185 271 127 162 219 335 326 335 326
195 198 196 184 196 170 177 185 206 223 227 223 225 223 214 202 144 132 137 159 143 215 187 172 153 212 128 38 57 348 353 18
195 205 188 197 184 192 196 209 197 196 217 194 194 198 172 164 152 158 166 147 128 193 129 193 178 154 162 336 114 103 1 339
201 191 193 191 187 194 192 120 102 97 131 139 171 147 182 169 177 175 165 135 155 157 165 188 182 170 170 126 176 146 147 231
219 170 180 173 186 197 175 181 199 207 211 174 160 143 167 77 114 148 130 141 157 147 160 208 156 165 141 160 164 133 92 152